一网星座-0049星 (ONEWEB-0049 )

导读

ONEWEB-0049是英国主导的OneWeb低轨宽带星座中的一员,于2020年2月6日发射入轨。卫星由空客制造,重量约147.5公斤,运行在1200公里高度的近地轨道,配备Ku/Ka波段通信天线与霍尔效应推进器,设计寿命5-7年。作为OneWeb一期星座的组成部分,它为全球宽带互联网覆盖提供支撑,服务航空、海事、应急通信等场景,寿命末期会主动离轨减少空间碎片,符合空间环境规范。

Basic Information
目录编号:
45154
目录名称:
ONEWEB-0049
国际标识:
2020-008Z
轨道中心:
EARTH
卫星名称:
一网星座-0049星
卫星全名:
一网星座-0049星 (ONEWEB-0049 )
卫星状态:
在轨 (已飞行2320 天)
发射日期:
2020-02-06 UTC
国别 :
英国 (GB)
星等 :
--
Orbit Information
数据来源 国际轨道数据 AOE轨道数据
星历时间 2026-06-14T06:34:04+0800
13小时前
查看轨道信息
2026-06-10T06:00:00+0800
4天前
查看轨道信息
半长轴 7599.855km 7599.882km
偏心率 0.0002224 0.0002116
轨道倾角 87.883° 87.885°
近地点辐角 82.461° 86.824°
升交点赤经 36.924° 37.725°
平近点角 277.677° 23.187°
近地点 1220.027km 1220.136km
远地点 1223.409km 1223.354km
周期 109.892分钟 109.893分钟
每日圈数 13.103727 13.103658
Detailed Information
平衡模式:
三轴稳定
覆盖范围:
全球
运营商:
一网卫星公司
运营商所在国:
英国
制造商(研发单位):
一网卫星公司
制造商所在国:
英国
使用方式:
暂无
Satellite Introduction
OneWeb卫星网络由648颗重约125公斤的微型卫星组成,运行在1200公里的轨道上。 每颗卫星都能够提供至少每秒8千兆位的吞吐量,以使用其高吞吐量的Ku频段有效载荷为家庭和移动平台提供互联网接入。该卫星仍在工作。
2D Orbit Map
3D Orbit Map
Orbit Altitude Analysis Chart
Orbit Inclination Analysis Chart
Orbit Comprehensive Analysis Chart
View Comprehensive Chart